Location: Unspecified
(0.0000°N, 0.0000°E)
Time: 14:30:15
(UTC+01:00)

OTV 5 (USA 277) - Visible Passes

Search period start: 17 December 2018 00:00
Search period end: 27 December 2018 00:00
Orbit: 340 x 348 km, 54.5° (Epoch: 10 December)

Date Brightness Start Highest point End Pass type
(mag) Time Alt. Az. Time Alt. Az. Time Alt. Az.
17 Dec ? 20:24:33 10° SW 20:27:11 39° WNW 20:27:11 39° WNW visible
19 Dec ? 19:36:56 10° SW 19:39:43 43° WNW 19:42:29 10° NNE visible
22 Dec ? 06:13:45 10° NNW 06:16:31 51° ENE 06:19:18 10° SE visible
24 Dec ? 05:29:11 45° ENE 05:29:11 45° ENE 05:31:41 10° SE visible
25 Dec ? 05:52:41 20° SW 05:52:41 20° SW 05:54:40 10° S visible
